Chicago Midway, IL

11:15 PM CST on November 20, 2019 (GMT -0600)
Chicago-Midway

Weather History for KMDW - September, 2019

Change the Weather History Date:

Sunday, September 22, 2019

  Actual Average Record
Temperature  
Mean Temperature 73 °F 64 °F  
Max Temperature 78 °F 73 °F 95 °F (2017)
Min Temperature 67 °F 55 °F 34 °F (1974)
Degree Days  
Heating Degree Days 0 4  
Month to date heating degree days 0 39  
Since 1 July heating degree days 0 44  
Cooling Degree Days 8 2  
Month to date cooling degree days 162 105  
Year to date cooling degree days 1080 1015  
Growing Degree Days 24 (Base 50)    
Moisture  
Dew Point 68 °F    
Average Humidity 87    
Maximum Humidity 96    
Minimum Humidity 61    
Precipitation  
Precipitation 0.60 in 0.11 in 1.09 in (1965)
Month to date precipitation 3.90 2.48  
Year to date precipitation 33.81 29.03  
Sea Level Pressure  
Sea Level Pressure 29.86 in    
Wind  
Wind Speed 12 mph (SW)    
Max Wind Speed 23 mph    
Max Gust Speed 34 mph    
Visibility 8 miles    
Events Rain , Thunderstorm    
T = Trace of Precipitation, MM = Missing Value Source: NWS Daily Summary

Daily Weather History Graph

Daily Weather History Graph

Search for Another Location

Airport or City:

Astronomy

Sep. 22, 2019 Rise Set
Actual Time 6:38 AM CDT 6:48 PM CDT
Civil Twilight 6:10 AM CDT 7:16 PM CDT
Nautical Twilight 5:37 AM CDT 7:48 PM CDT
Astronomical Twilight 5:04 AM CDT 8:21 PM CDT
Moon No Moon Rise 2:49 PM CDT (9/22)
Length of Visible Light 13h 05m
Length of Day
12h 10m
Last Quarter, 44% of the Moon is Illuminated
Sep 22
Last Quarter
Sep 28
New
Oct 5
First Quarter
Oct 13
Full
Oct 21
Last Quarter

Hourly Weather History & Observations

Time (CDT) Temp. Dew Point Humidity Pressure Visibility Wind Dir Wind Speed Gust Speed Precip Events Conditions
12:22 AM 72.0 °F 68.0 °F 87% 30.01 in 5.0 mi SSW 15.0 mph - 0.02 in Rain , Thunderstorm Light Thunderstorms and Rain
12:53 AM 71.1 °F 69.1 °F 93% 29.99 in 5.0 mi SW 8.1 mph - 0.12 in Rain , Thunderstorm Thunderstorms and Rain
1:31 AM 71.1 °F 69.1 °F 93% 30.00 in 9.0 mi South 8.1 mph - 0.02 in Rain Light Rain
1:53 AM 71.1 °F 69.1 °F 93% 29.97 in 10.0 mi South 8.1 mph - 0.02 in   Mostly Cloudy
2:53 AM 72.0 °F 69.1 °F 91% 29.96 in 10.0 mi SSW 10.4 mph - 0.00 in   Mostly Cloudy
3:53 AM 72.0 °F 69.1 °F 91% 29.95 in 10.0 mi SSW 13.8 mph 20.7 mph 0.01 in Rain Light Rain
4:53 AM 71.1 °F 69.1 °F 93% 29.94 in 10.0 mi South 9.2 mph - 0.07 in   Mostly Cloudy
5:53 AM 71.1 °F 68.0 °F 90% 29.92 in 10.0 mi South 6.9 mph - N/A   Overcast
6:53 AM 72.0 °F 66.9 °F 84% 29.92 in 10.0 mi SSW 10.4 mph - N/A   Overcast
7:53 AM 72.0 °F 66.9 °F 84% 29.91 in 10.0 mi South 8.1 mph - N/A   Mostly Cloudy
8:53 AM 73.0 °F 66.0 °F 79% 29.89 in 10.0 mi SSW 12.7 mph 25.3 mph N/A   Overcast
9:53 AM 75.0 °F 64.0 °F 69% 29.88 in 10.0 mi SSW 15.0 mph 24.2 mph N/A   Mostly Cloudy
10:53 AM 78.1 °F 64.9 °F 64% 29.88 in 10.0 mi SSW 15.0 mph 25.3 mph N/A   Mostly Cloudy
11:53 AM 78.1 °F 64.9 °F 64% 29.86 in 10.0 mi SSW 19.6 mph 26.5 mph N/A   Mostly Cloudy
12:53 PM 78.1 °F 64.9 °F 64% 29.86 in 10.0 mi SW 18.4 mph 28.8 mph N/A   Overcast
1:53 PM 73.9 °F 68.0 °F 82% 29.86 in 10.0 mi SW 12.7 mph - 0.01 in Rain Light Rain
2:53 PM 73.0 °F 68.0 °F 84% 29.84 in 10.0 mi SW 11.5 mph - 0.00 in Rain Light Rain
3:25 PM 72.0 °F 69.1 °F 91% 29.86 in 2.5 mi SW 12.7 mph 26.5 mph 0.12 in Rain Rain
3:53 PM 71.1 °F 69.1 °F 93% 29.83 in 5.0 mi SSW 10.4 mph - 0.17 in Rain Light Rain
4:44 PM 72.0 °F 69.1 °F 91% 29.83 in 10.0 mi SSW 13.8 mph 18.4 mph 0.05 in Rain Light Rain
4:53 PM 72.0 °F 69.1 °F 91% 29.81 in 8.0 mi South 12.7 mph - 0.05 in Rain Light Rain
5:02 PM 72.0 °F 69.1 °F 91% 29.82 in 2.0 mi South 11.5 mph 20.7 mph 0.04 in Rain Heavy Rain
5:10 PM 71.1 °F 70.0 °F 96% 29.82 in 3.0 mi SSW 10.4 mph 20.7 mph 0.08 in Rain Rain
5:35 PM 72.0 °F 70.0 °F 93% 29.81 in 2.5 mi SSW 10.4 mph - 0.12 in Rain Rain
5:53 PM 72.0 °F 70.0 °F 93% 29.77 in 3.0 mi SSW 6.9 mph - 0.17 in Rain Light Rain
6:09 PM 72.0 °F 70.0 °F 93% 29.78 in 2.5 mi South 6.9 mph - 0.02 in Rain Light Rain
6:32 PM 72.0 °F 70.0 °F 93% 29.78 in 4.0 mi South 5.8 mph - 0.05 in Rain Light Rain
6:53 PM 73.0 °F 69.1 °F 87% 29.75 in 10.0 mi SSW 18.4 mph 27.6 mph 0.05 in   Overcast
7:30 PM 73.9 °F 70.0 °F 87% 29.79 in 10.0 mi WSW 16.1 mph 31.1 mph 0.01 in Rain Light Rain
7:53 PM 73.0 °F 70.0 °F 90% 29.77 in 10.0 mi SW 15.0 mph 25.3 mph 0.01 in   Overcast
8:53 PM 72.0 °F 70.0 °F 93% 29.80 in 4.0 mi WNW 15.0 mph - 0.02 in Rain Light Rain
9:13 PM 70.0 °F 68.0 °F 93% 29.84 in 10.0 mi WNW 9.2 mph - 0.02 in   Overcast
9:25 PM 70.0 °F 68.0 °F 93% 29.84 in 10.0 mi WNW 9.2 mph - 0.02 in   Light Drizzle
9:53 PM 69.1 °F 68.0 °F 96% 29.83 in 10.0 mi West 6.9 mph - 0.02 in   Light Drizzle
10:24 PM 69.1 °F 66.9 °F 93% 29.86 in 10.0 mi WSW 8.1 mph - 0.00 in   Overcast
10:53 PM 69.1 °F 66.0 °F 90% 29.83 in 10.0 mi West 8.1 mph - 0.00 in   Overcast
11:53 PM 68.0 °F 66.0 °F 93% 29.83 in 10.0 mi West 6.9 mph - N/A   Mostly Cloudy